Location: Litvinovka
(48.6667°N, 34.3500°E)
Time: 00:06:09
(UTC+00:00)

CZ-4C R/B - Pass Details

Date: 18 September 2020
Orbit: 626 x 1375 km, 63.4° (Epoch: 23 October)

Event Time Altitude Azimuth Distance (km) Brightness Sun altitude
Exits shadow 21:16:49 22° 34° (NE) 1,884 4.3 -39.7°
Drops below altitude 10° 21:19:02 10° 39° (NE) 2,697 5.2 -39.8°
Sets 21:21:55 0° 42° (NE) 3,774 6.1 -39.8°
